ARIRANG-5 (KOMPSAT-5)

Last updated on Mon Jul 07 2025 00:02:28 GMT+0000 (Coordinated Universal Time)

1 39227U 13042A 25187.58842937 .00001493 00000+0 11085-3 0 9996 2 39227 97.6204 14.1107 0001166 202.9586 157.1588 15.04540130651890
UTC large
Height (km)
Speed (km/s)
/
Latitude / Longitude
Inclination (degrees)
Orbital Period (minutes)
Azimuth
Elevation
Range (km)
Doppler Factor

Next 0 passes for location: London (51.5072 / 0.1276)

Sorry there are no passes over London.